Orlando, FL

2:57 PM EST on February 14, 2016 (GMT -0500)
Orlando International

Weather History for KMCO - May, 2014

Change the Weather History Date:

Sunday, May 18, 2014

  Actual Average Record
Temperature  
Mean Temperature 73 °F 78 °F  
Max Temperature 84 °F 89 °F 97 °F (1930)
Min Temperature 62 °F 67 °F 51 °F (1917)
Degree Days  
Heating Degree Days 0 0  
Month to date heating degree days 0 0  
Since 1 July heating degree days 406 570  
Cooling Degree Days 8 13  
Month to date cooling degree days 219 198  
Year to date cooling degree days 741 619  
Growing Degree Days 23 (Base 50)    
Moisture  
Dew Point 57 °F    
Average Humidity 62    
Maximum Humidity 84    
Minimum Humidity 40    
Precipitation  
Precipitation 0.00 in 0.10 in 1.74 in (1943)
Month to date precipitation 3.37 1.48  
Year to date precipitation 17.13 12.66  
Sea Level Pressure  
Sea Level Pressure 30.15 in    
Wind  
Wind Speed 11 mph (NE)    
Max Wind Speed 20 mph    
Max Gust Speed 25 mph    
Visibility 10 miles    
Events      
T = Trace of Precipitation, MM = Missing Value Source: NWS Daily Summary

Daily Weather History Graph

Daily Weather History Graph

Search for Another Location

Airport or City:

Trip Planner

Search our weather history database for the weather conditions in past years. The results will help you decide how hot, cold, wet, or windy it might be!

Date:

Astronomy

May. 18, 2014 Rise Set
Actual Time 6:33 AM EDT 8:10 PM EDT
Civil Twilight 6:07 AM EDT 8:36 PM EDT
Nautical Twilight 5:36 AM EDT 9:07 PM EDT
Astronomical Twilight 5:04 AM EDT 9:39 PM EDT
Moon No Moon Rise 10:17 AM EDT (5/18)
Length of Visible Light 14h 29m
Length of Day
13h 37m
Waning Gibbous, 81% of the Moon is Illuminated
May 18
Waning Gibbous
May 21
Last Quarter
May 28
New
Jun 5
First Quarter
Jun 13
Full

Hourly Weather History & Observations

Time (EDT) Temp. Heat Index Dew Point Humidity Pressure Visibility Wind Dir Wind Speed Gust Speed Precip Events Conditions
12:53 AM 64.9 °F - 55.0 °F 70% 30.18 in 10.0 mi North 6.9 mph - N/A   Clear
1:53 AM 64.9 °F - 55.9 °F 73% 30.16 in 10.0 mi North 6.9 mph - N/A   Clear
2:53 AM 63.0 °F - 55.9 °F 78% 30.15 in 10.0 mi North 4.6 mph - N/A   Clear
3:53 AM 63.0 °F - 55.9 °F 78% 30.15 in 10.0 mi North 6.9 mph - N/A   Clear
4:53 AM 62.1 °F - 57.0 °F 84% 30.15 in 10.0 mi North 6.9 mph - N/A   Clear
5:53 AM 62.1 °F - 57.0 °F 84% 30.15 in 10.0 mi North 6.9 mph - N/A   Clear
6:53 AM 63.0 °F - 57.0 °F 81% 30.15 in 10.0 mi North 6.9 mph - N/A   Partly Cloudy
7:53 AM 68.0 °F - 57.9 °F 70% 30.17 in 10.0 mi North 6.9 mph - N/A   Partly Cloudy
8:53 AM 73.0 °F - 57.9 °F 59% 30.17 in 10.0 mi NE 9.2 mph - N/A   Partly Cloudy
9:53 AM 77.0 °F - 60.1 °F 56% 30.17 in 10.0 mi NE 11.5 mph - N/A   Partly Cloudy
10:53 AM 80.1 °F 80.9 °F 60.1 °F 50% 30.17 in 10.0 mi NE 15.0 mph - N/A   Partly Cloudy
11:53 AM 81.0 °F 81.1 °F 57.9 °F 45% 30.17 in 10.0 mi ENE 13.8 mph 24.2 mph N/A   Partly Cloudy
12:53 PM 82.9 °F 82.8 °F 59.0 °F 44% 30.16 in 10.0 mi ENE 16.1 mph 20.7 mph N/A   Partly Cloudy
1:53 PM 82.9 °F 82.6 °F 57.9 °F 42% 30.15 in 10.0 mi ENE 16.1 mph 23.0 mph N/A   Partly Cloudy
2:53 PM 82.0 °F 82.0 °F 57.9 °F 44% 30.13 in 10.0 mi NE 16.1 mph - N/A   Scattered Clouds
3:53 PM 84.0 °F 83.5 °F 57.9 °F 41% 30.12 in 10.0 mi ENE 16.1 mph 20.7 mph N/A   Partly Cloudy
4:53 PM 81.0 °F 80.7 °F 55.0 °F 41% 30.12 in 10.0 mi ENE 12.7 mph 20.7 mph N/A   Scattered Clouds
5:53 PM 81.0 °F 80.7 °F 55.0 °F 41% 30.12 in 10.0 mi NE 18.4 mph 21.9 mph N/A   Partly Cloudy
6:53 PM 79.0 °F - 57.0 °F 47% 30.13 in 10.0 mi ENE 13.8 mph - N/A   Partly Cloudy
7:53 PM 75.9 °F - 57.0 °F 52% 30.14 in 10.0 mi ENE 15.0 mph - N/A   Partly Cloudy
8:53 PM 73.0 °F - 57.9 °F 59% 30.16 in 10.0 mi ENE 9.2 mph - N/A   Clear
9:53 PM 72.0 °F - 59.0 °F 64% 30.17 in 10.0 mi ENE 6.9 mph - N/A   Partly Cloudy
10:53 PM 71.1 °F - 59.0 °F 66% 30.17 in 10.0 mi NE 6.9 mph - N/A   Partly Cloudy
11:53 PM 71.1 °F - 60.1 °F 68% 30.18 in 10.0 mi ENE 8.1 mph - N/A   Partly Cloudy